星链-3943 (STARLINK-3943 )

导读 | 星芒AI

STARLINK-3943 是 SpaceX Starlink 卫星互联网项目中的一颗低轨道卫星,属于第三代“星链”卫星群。该卫星于2023年发射,旨在为全球用户提供高速、低延迟的互联网服务。它运行在约550公里高的近地轨道,配备先进通信设备和激光链路,以提升网络连接效率。STARLINK-3943 的部署有助于扩展 Starlink 在偏远和农村地区的覆盖范围,支持更多用户接入互联网服务。

基本信息
目录编号:
52557
目录名称:
STARLINK-3943
国际标识:
2022-051AA
轨道中心:
EARTH
卫星名称:
星链-3943
卫星全名:
星链-3943 (STARLINK-3943 )
卫星状态:
在轨 (已飞行1318 天)
发射日期:
2022-05-13 UTC
国别 :
美国 (US)
星等 :
--
轨道信息
数据来源 国际轨道数据
星历时间: 2025-12-20T23:02:36+0800
14小时前
查看轨道信息
半长轴: 6917.878km
偏心率: 0.0001356
轨道倾角: 53.218°
近地点辐角 90.198°
升交点赤经 124.048°
平近点角 269.917°
近地点: 538.802km
远地点: 540.68km
周期: 95.437分钟
每日圈数: 15.088411
详细信息
固有亮度:
5
最大亮度:
2.5
卫星平台:
Starlink v1.5
覆盖范围:
全球
运营商:
太空探索技术公司
运营商所在国:
美国
制造商(研发单位):
太空探索技术公司
制造商所在国:
美国
使用方式:
暂无
卫星简介
星链(Starlink)计划是由太空探索技术公司(SpaceX)提出的一个巨型低轨卫星互联网星座项目,计划在2019年至2024年间在太空搭建由约1.2万颗卫星组成的“星链”网络,其中1584颗将部署在地球上空550千米处的近地轨道,并从2020年开始工作。该卫星仍在工作。
2D轨道图
3D轨道图
轨道高度分析图
轨道倾角分析图
轨道综合分析图
查看轨道综合分析图